| time (UTC) | temp F | wind direction | speed MPH | gust MPH | rain 1hr in | rain 24hr in | rain mn in | humidity % | barometer mb |
| 20260905235338 | 73 | 267 | 0.0 | 0.0 | 0.41 | 0.00 | 0.54 | 100 | 1010.5 |
| 20260905234838 | 73 | 286 | 0.0 | 2.0 | 0.41 | 0.00 | 0.54 | 100 | 1010.5 |
| 20260905234338 | 73 | 336 | 0.0 | 2.0 | 0.40 | 0.00 | 0.53 | 100 | 1010.5 |
| 20260905233838 | 73 | 322 | 0.0 | 0.0 | 0.38 | 0.00 | 0.53 | 100 | 1010.5 |
| 20260905233338 | 73 | 167 | 0.0 | 0.0 | 0.35 | 0.00 | 0.52 | 100 | 1010.2 |
| 20260905232838 | 73 | 259 | 0.0 | 0.0 | 0.31 | 0.00 | 0.52 | 100 | 1009.8 |
| 20260905232338 | 73 | 34 | 0.0 | 0.0 | 0.27 | 0.00 | 0.52 | 100 | 1009.5 |
| 20260905231838 | 73 | 102 | 0.0 | 2.0 | 0.23 | 0.00 | 0.52 | 100 | 1009.8 |
| 20260905231338 | 74 | 188 | 2.0 | 2.0 | 0.19 | 0.00 | 0.51 | 100 | 1010.2 |
| 20260905230838 | 74 | 255 | 0.0 | 0.0 | 0.14 | 0.00 | 0.49 | 100 | 1010.8 |
| 20260905230338 | 74 | 312 | 2.0 | 2.0 | 0.11 | 0.00 | 0.46 | 100 | 1010.8 |
| 20260905225838 | 74 | 81 | 3.0 | 3.0 | 0.07 | 0.00 | 0.41 | 98 | 1011.2 |
| 20260905225338 | 74 | 240 | 14.0 | 15.0 | 0.04 | 0.00 | 0.18 | 98 | 1012.5 |
| 20260905224838 | 74 | 162 | 3.0 | 7.0 | 0.03 | 0.00 | 0.17 | 96 | 1011.9 |
| 20260905224339 | 75 | 219 | 0.0 | 2.0 | 0.02 | 0.00 | 0.13 | 93 | 1009.8 |
| 20260905223838 | 75 | 356 | 5.0 | 15.0 | 0.01 | 0.00 | 0.08 | 93 | 1009.1 |
| 20260905223339 | 77 | 12 | 5.0 | 5.0 | 0.00 | 0.00 | 0.07 | 89 | 1008.5 |
| 20260905222838 | 79 | 75 | 6.0 | 10.0 | 0.00 | 0.00 | 0.00 | 85 | 1009.1 |
| 20260905222338 | 80 | 359 | 27.0 | 29.0 | 0.00 | 0.00 | 0.00 | 81 | 1010.2 |
| 20260905221838 | 81 | 100 | 14.0 | 24.0 | 0.00 | 0.00 | 0.00 | 79 | 1010.5 |
| 20260905221342 | 82 | 35 | 16.0 | 22.0 | 0.00 | 0.00 | 0.00 | 80 | 1010.2 |
| 20260905220838 | 83 | 90 | 3.0 | 3.0 | 0.00 | 0.00 | 0.00 | 78 | 1009.5 |
| 20260905220339 | 84 | 49 | 2.0 | 3.0 | 0.00 | 0.00 | 0.00 | 77 | 1009.1 |
| 20260905215838 | 84 | 56 | 2.0 | 2.0 | 0.00 | 0.00 | 0.00 | 75 | 1009.1 |
| 20260905215338 | 85 | 294 | 0.0 | 2.0 | 0.00 | 0.00 | 0.00 | 74 | 1009.1 |
| 20260905214839 | 86 | 190 | 3.0 | 3.0 | 0.00 | 0.00 | 0.00 | 72 | 1009.5 |
| 20260905214338 | 88 | 109 | 5.0 | 5.0 | 0.00 | 0.00 | 0.00 | 70 | 1009.1 |
| 20260905213838 | 90 | 116 | 5.0 | 5.0 | 0.00 | 0.00 | 0.00 | 69 | 1009.1 |
| 20260905213338 | 92 | 140 | 6.0 | 17.0 | 0.00 | 0.00 | 0.00 | 66 | 1008.5 |
| 20260905212838 | 95 | 107 | 2.0 | 2.0 | 0.00 | 0.00 | 0.00 | 64 | 1008.5 |
| 20260905212340 | 95 | 322 | 2.0 | 2.0 | 0.00 | 0.00 | 0.00 | 63 | 1008.1 |
| 20260905211838 | 95 | 315 | 0.0 | 2.0 | 0.00 | 0.00 | 0.00 | 64 | 1008.1 |
| 20260905211338 | 95 | 35 | 2.0 | 5.0 | 0.00 | 0.00 | 0.00 | 62 | 1008.1 |
| 20260905210838 | 95 | 175 | 2.0 | 3.0 | 0.00 | 0.00 | 0.00 | 61 | 1008.1 |
| 20260905210340 | 96 | 228 | 2.0 | 3.0 | 0.00 | 0.00 | 0.00 | 60 | 1008.1 |
| 20260905205838 | 95 | 24 | 3.0 | 3.0 | 0.00 | 0.00 | 0.00 | 62 | 1008.1 |
| 20260905205339 | 95 | 232 | 2.0 | 5.0 | 0.00 | 0.00 | 0.00 | 60 | 1008.1 |
| 20260905204840 | 95 | 241 | 3.0 | 5.0 | 0.00 | 0.00 | 0.00 | 61 | 1008.1 |
| 20260905204342 | 96 | 253 | 3.0 | 5.0 | 0.00 | 0.00 | 0.00 | 60 | 1008.1 |
| 20260905203838 | 96 | 233 | 3.0 | 3.0 | 0.00 | 0.00 | 0.00 | 59 | 1008.1 |
| 20260905203339 | 96 | 257 | 3.0 | 5.0 | 0.00 | 0.00 | 0.00 | 58 | 1007.8 |
| 20260905202838 | 96 | 284 | 5.0 | 5.0 | 0.00 | 0.00 | 0.00 | 59 | 1007.8 |
| 20260905202339 | 98 | 222 | 5.0 | 9.0 | 0.00 | 0.00 | 0.00 | 57 | 1007.8 |
| 20260905201838 | 97 | 226 | 2.0 | 3.0 | 0.00 | 0.00 | 0.00 | 57 | 1007.8 |
| 20260905201339 | 98 | 243 | 6.0 | 10.0 | 0.00 | 0.00 | 0.00 | 57 | 1008.1 |
| 20260905200838 | 97 | 215 | 5.0 | 7.0 | 0.00 | 0.00 | 0.00 | 60 | 1008.1 |
| 20260905200338 | 97 | 211 | 3.0 | 7.0 | 0.00 | 0.00 | 0.00 | 58 | 1008.1 |
| 20260905195838 | 98 | 215 | 5.0 | 5.0 | 0.00 | 0.00 | 0.00 | 57 | 1008.1 |
| 20260905195342 | 98 | 267 | 5.0 | 5.0 | 0.00 | 0.00 | 0.00 | 57 | 1008.1 |
| 20260905194838 | 97 | 290 | 5.0 | 5.0 | 0.00 | 0.00 | 0.00 | 59 | 1008.5 |
| 20260905194338 | 98 | 231 | 5.0 | 5.0 | 0.00 | 0.00 | 0.00 | 56 | 1008.5 |
| 20260905193838 | 97 | 315 | 2.0 | 3.0 | 0.00 | 0.00 | 0.00 | 58 | 1008.8 |
| 20260905193339 | 97 | 341 | 3.0 | 5.0 | 0.00 | 0.00 | 0.00 | 60 | 1008.5 |
| 20260905192838 | 98 | 300 | 2.0 | 3.0 | 0.00 | 0.00 | 0.00 | 59 | 1008.5 |
| 20260905192338 | 96 | 8 | 0.0 | 2.0 | 0.00 | 0.00 | 0.00 | 63 | 1008.8 |
| 20260905191838 | 97 | 30 | 3.0 | 5.0 | 0.00 | 0.00 | 0.00 | 61 | 1008.8 |
| 20260905191340 | 97 | 45 | 3.0 | 3.0 | 0.00 | 0.00 | 0.00 | 65 | 1009.1 |
| 20260905190840 | 96 | 326 | 2.0 | 3.0 | 0.00 | 0.00 | 0.00 | 61 | 1009.1 |
| 20260905190338 | 98 | 276 | 3.0 | 5.0 | 0.00 | 0.00 | 0.00 | 59 | 1009.1 |
| 20260905185838 | 97 | 234 | 2.0 | 3.0 | 0.00 | 0.00 | 0.00 | 60 | 1009.1 |
| 20260905185338 | 96 | 299 | 2.0 | 2.0 | 0.00 | 0.00 | 0.00 | 61 | 1009.5 |
| 20260905184838 | 97 | 259 | 5.0 | 7.0 | 0.00 | 0.00 | 0.00 | 60 | 1009.5 |
| 20260905184338 | 96 | 252 | 3.0 | 3.0 | 0.00 | 0.00 | 0.00 | 63 | 1009.5 |
| 20260905183838 | 97 | 241 | 6.0 | 7.0 | 0.00 | 0.00 | 0.00 | 61 | 1009.5 |
| 20260905183338 | 96 | 203 | 2.0 | 2.0 | 0.00 | 0.00 | 0.00 | 63 | 1009.5 |
| 20260905182838 | 96 | 228 | 3.0 | 9.0 | 0.00 | 0.00 | 0.00 | 63 | 1009.8 |
| 20260905182339 | 96 | 179 | 2.0 | 9.0 | 0.00 | 0.00 | 0.00 | 63 | 1009.8 |
| 20260905181838 | 96 | 230 | 8.0 | 9.0 | 0.00 | 0.00 | 0.00 | 64 | 1009.8 |
| 20260905181338 | 96 | 311 | 0.0 | 3.0 | 0.00 | 0.00 | 0.00 | 65 | 1010.2 |
| 20260905180839 | 94 | 284 | 3.0 | 7.0 | 0.00 | 0.00 | 0.00 | 65 | 1010.2 |
| 20260905180338 | 95 | 208 | 2.0 | 2.0 | 0.00 | 0.00 | 0.00 | 66 | 1010.2 |
| 20260905175838 | 95 | 227 | 5.0 | 5.0 | 0.00 | 0.00 | 0.00 | 67 | 1010.2 |
| 20260905175339 | 95 | 205 | 2.0 | 5.0 | 0.00 | 0.00 | 0.00 | 67 | 1010.2 |
| 20260905174839 | 94 | 189 | 3.0 | 3.0 | 0.00 | 0.00 | 0.00 | 67 | 1010.2 |
| 20260905174338 | 94 | 231 | 2.0 | 5.0 | 0.00 | 0.00 | 0.00 | 72 | 1010.5 |
| 20260905173838 | 92 | 30 | 6.0 | 7.0 | 0.00 | 0.00 | 0.00 | 71 | 1010.5 |
| 20260905173338 | 93 | 333 | 3.0 | 5.0 | 0.00 | 0.00 | 0.00 | 70 | 1010.5 |
| 20260905172838 | 94 | 325 | 3.0 | 7.0 | 0.00 | 0.00 | 0.00 | 70 | 1010.5 |
| 20260905172338 | 94 | 207 | 3.0 | 10.0 | 0.00 | 0.00 | 0.00 | 69 | 1010.8 |
| 20260905171839 | 94 | 260 | 3.0 | 5.0 | 0.00 | 0.00 | 0.00 | 68 | 1010.8 |
| 20260905171339 | 94 | 209 | 3.0 | 3.0 | 0.00 | 0.00 | 0.00 | 70 | 1010.8 |
| 20260905170838 | 94 | 356 | 3.0 | 7.0 | 0.00 | 0.00 | 0.00 | 70 | 1010.8 |
| 20260905170338 | 93 | 67 | 3.0 | 5.0 | 0.00 | 0.00 | 0.00 | 72 | 1010.8 |
| 20260905165838 | 93 | 244 | 2.0 | 5.0 | 0.00 | 0.00 | 0.00 | 73 | 1011.2 |
| 20260905165339 | 92 | 248 | 3.0 | 9.0 | 0.00 | 0.00 | 0.00 | 72 | 1011.2 |
| 20260905164838 | 92 | 226 | 3.0 | 10.0 | 0.00 | 0.00 | 0.00 | 72 | 1011.2 |
| 20260905164338 | 92 | 63 | 8.0 | 9.0 | 0.00 | 0.00 | 0.00 | 72 | 1011.5 |
| 20260905163838 | 92 | 242 | 8.0 | 9.0 | 0.00 | 0.00 | 0.00 | 72 | 1011.5 |
| 20260905163338 | 92 | 191 | 2.0 | 3.0 | 0.00 | 0.00 | 0.00 | 74 | 1011.5 |
| 20260905162841 | 91 | 252 | 5.0 | 10.0 | 0.00 | 0.00 | 0.00 | 73 | 1011.5 |
| 20260905162338 | 92 | 206 | 5.0 | 7.0 | 0.00 | 0.00 | 0.00 | 72 | 1011.5 |
| 20260905161839 | 92 | 156 | 2.0 | 3.0 | 0.00 | 0.00 | 0.00 | 74 | 1011.5 |
| 20260905161338 | 91 | 265 | 2.0 | 7.0 | 0.00 | 0.00 | 0.00 | 74 | 1011.9 |
| 20260905160839 | 91 | 263 | 5.0 | 12.0 | 0.00 | 0.00 | 0.00 | 76 | 1011.9 |
| 20260905160338 | 91 | 285 | 5.0 | 12.0 | 0.00 | 0.00 | 0.00 | 75 | 1011.9 |
| 20260905155839 | 90 | 139 | 2.0 | 3.0 | 0.00 | 0.00 | 0.00 | 75 | 1011.9 |
| 20260905155338 | 90 | 218 | 3.0 | 7.0 | 0.00 | 0.00 | 0.00 | 75 | 1011.9 |
| 20260905154839 | 90 | 217 | 3.0 | 3.0 | 0.00 | 0.00 | 0.00 | 77 | 1011.9 |
| 20260905154338 | 90 | 228 | 5.0 | 10.0 | 0.00 | 0.00 | 0.00 | 76 | 1012.2 |
| 20260905153839 | 90 | 282 | 6.0 | 12.0 | 0.00 | 0.00 | 0.00 | 76 | 1011.9 |
| 20260905153338 | 90 | 171 | 5.0 | 10.0 | 0.00 | 0.00 | 0.00 | 76 | 1012.2 |
| 20260905152838 | 89 | 209 | 6.0 | 7.0 | 0.00 | 0.00 | 0.00 | 76 | 1012.2 |
| 20260905152338 | 89 | 241 | 6.0 | 7.0 | 0.00 | 0.00 | 0.00 | 77 | 1012.2 |
| 20260905151839 | 89 | 277 | 5.0 | 5.0 | 0.00 | 0.00 | 0.00 | 77 | 1012.2 |
| 20260905151339 | 89 | 264 | 5.0 | 9.0 | 0.00 | 0.00 | 0.00 | 77 | 1012.2 |
| 20260905150839 | 89 | 193 | 3.0 | 9.0 | 0.00 | 0.00 | 0.00 | 78 | 1012.2 |
| 20260905150338 | 88 | 232 | 5.0 | 12.0 | 0.00 | 0.00 | 0.00 | 78 | 1012.2 |
| 20260905145838 | 88 | 258 | 6.0 | 10.0 | 0.00 | 0.00 | 0.00 | 79 | 1011.9 |
| 20260905145338 | 88 | 218 | 5.0 | 7.0 | 0.00 | 0.00 | 0.00 | 78 | 1011.9 |
| 20260905144838 | 88 | 272 | 8.0 | 9.0 | 0.00 | 0.00 | 0.00 | 79 | 1012.2 |
| 20260905144338 | 88 | 220 | 8.0 | 14.0 | 0.00 | 0.00 | 0.00 | 80 | 1012.2 |
| 20260905143838 | 87 | 224 | 8.0 | 9.0 | 0.00 | 0.00 | 0.00 | 82 | 1012.2 |
| 20260905143338 | 87 | 248 | 3.0 | 3.0 | 0.00 | 0.00 | 0.00 | 83 | 1012.2 |
| 20260905142838 | 87 | 237 | 5.0 | 5.0 | 0.00 | 0.00 | 0.00 | 83 | 1012.2 |
| 20260905142338 | 86 | 195 | 3.0 | 9.0 | 0.00 | 0.00 | 0.00 | 83 | 1012.2 |
| 20260905141838 | 86 | 238 | 6.0 | 12.0 | 0.00 | 0.00 | 0.00 | 83 | 1012.2 |
| 20260905141338 | 86 | 273 | 6.0 | 7.0 | 0.00 | 0.00 | 0.00 | 84 | 1012.2 |
| 20260905140839 | 85 | 249 | 3.0 | 3.0 | 0.00 | 0.00 | 0.00 | 84 | 1012.2 |
| 20260905140341 | 85 | 269 | 3.0 | 3.0 | 0.00 | 0.00 | 0.00 | 85 | 1012.2 |
| 20260905135838 | 85 | 208 | 3.0 | 5.0 | 0.00 | 0.00 | 0.00 | 85 | 1012.2 |
| 20260905135339 | 85 | 250 | 6.0 | 10.0 | 0.00 | 0.00 | 0.00 | 86 | 1012.2 |
| 20260905134838 | 85 | 263 | 8.0 | 9.0 | 0.00 | 0.00 | 0.00 | 87 | 1012.2 |
| 20260905134341 | 85 | 227 | 6.0 | 7.0 | 0.00 | 0.00 | 0.00 | 87 | 1012.2 |
| 20260905133839 | 84 | 230 | 3.0 | 5.0 | 0.00 | 0.00 | 0.00 | 87 | 1012.2 |
| 20260905133338 | 84 | 276 | 3.0 | 3.0 | 0.00 | 0.00 | 0.00 | 88 | 1012.5 |
| 20260905132839 | 84 | 234 | 6.0 | 7.0 | 0.00 | 0.00 | 0.00 | 88 | 1012.5 |
| 20260905132339 | 84 | 12 | 5.0 | 5.0 | 0.00 | 0.00 | 0.00 | 88 | 1012.5 |
| 20260905131840 | 83 | 277 | 8.0 | 9.0 | 0.00 | 0.00 | 0.00 | 89 | 1012.5 |
| 20260905131340 | 83 | 241 | 5.0 | 5.0 | 0.00 | 0.00 | 0.00 | 90 | 1012.5 |
| 20260905130839 | 83 | 219 | 6.0 | 7.0 | 0.00 | 0.00 | 0.00 | 90 | 1012.5 |
| 20260905130338 | 82 | 261 | 5.0 | 7.0 | 0.00 | 0.00 | 0.00 | 91 | 1012.5 |
| 20260905125838 | 82 | 216 | 5.0 | 9.0 | 0.00 | 0.00 | 0.00 | 92 | 1012.5 |
| 20260905125338 | 82 | 290 | 3.0 | 5.0 | 0.00 | 0.00 | 0.00 | 92 | 1012.5 |
| 20260905124839 | 81 | 274 | 3.0 | 7.0 | 0.00 | 0.00 | 0.00 | 93 | 1012.5 |
| 20260905124338 | 81 | 279 | 2.0 | 3.0 | 0.00 | 0.00 | 0.00 | 94 | 1012.5 |
| 20260905123838 | 81 | 264 | 3.0 | 7.0 | 0.00 | 0.00 | 0.00 | 94 | 1012.5 |
| 20260905123339 | 81 | 260 | 10.0 | 10.0 | 0.00 | 0.00 | 0.00 | 94 | 1012.5 |
| 20260905122838 | 80 | 265 | 3.0 | 5.0 | 0.00 | 0.00 | 0.00 | 95 | 1012.5 |
| 20260905122338 | 80 | 236 | 5.0 | 5.0 | 0.00 | 0.00 | 0.00 | 95 | 1012.5 |
| 20260905121838 | 80 | 237 | 5.0 | 5.0 | 0.00 | 0.00 | 0.00 | 96 | 1012.5 |
| 20260905121338 | 79 | 237 | 2.0 | 7.0 | 0.00 | 0.00 | 0.00 | 97 | 1012.5 |
| 20260905120839 | 79 | 268 | 3.0 | 5.0 | 0.00 | 0.00 | 0.00 | 97 | 1012.5 |
| 20260905120340 | 79 | 264 | 3.0 | 7.0 | 0.00 | 0.00 | 0.00 | 98 | 1012.5 |
| 20260905115839 | 79 | 236 | 2.0 | 5.0 | 0.00 | 0.00 | 0.00 | 98 | 1012.5 |
| 20260905114913 | 78 | 235 | 2.0 | 3.0 | 0.00 | 0.00 | 0.00 | 99 | 1012.5 |
| 20260905114338 | 78 | 227 | 3.0 | 3.0 | 0.00 | 0.00 | 0.00 | 99 | 1012.5 |
| 20260905113838 | 78 | 217 | 2.0 | 5.0 | 0.00 | 0.00 | 0.00 | 99 | 1012.5 |
| 20260905113339 | 78 | 219 | 3.0 | 3.0 | 0.00 | 0.00 | 0.00 | 100 | 1012.5 |
| 20260905112838 | 78 | 254 | 3.0 | 3.0 | 0.00 | 0.00 | 0.00 | 100 | 1012.2 |
| 20260905112338 | 77 | 223 | 2.0 | 5.0 | 0.00 | 0.00 | 0.00 | 100 | 1012.2 |
| 20260905111839 | 77 | 226 | 3.0 | 5.0 | 0.00 | 0.00 | 0.00 | 100 | 1012.2 |
| 20260905111338 | 77 | 139 | 2.0 | 2.0 | 0.00 | 0.00 | 0.00 | 100 | 1012.2 |
| 20260905110838 | 77 | 256 | 3.0 | 5.0 | 0.00 | 0.00 | 0.00 | 100 | 1012.2 |
| 20260905110338 | 77 | 237 | 2.0 | 2.0 | 0.00 | 0.00 | 0.00 | 100 | 1012.2 |
| 20260905105840 | 77 | 258 | 3.0 | 3.0 | 0.00 | 0.00 | 0.00 | 100 | 1012.2 |
| 20260905105338 | 77 | 266 | 0.0 | 3.0 | 0.00 | 0.00 | 0.00 | 100 | 1012.2 |
| 20260905104839 | 77 | 206 | 3.0 | 5.0 | 0.00 | 0.00 | 0.00 | 100 | 1012.2 |
| 20260905104338 | 77 | 212 | 3.0 | 3.0 | 0.00 | 0.00 | 0.00 | 100 | 1012.2 |
| 20260905103838 | 77 | 246 | 3.0 | 5.0 | 0.00 | 0.00 | 0.00 | 100 | 1012.2 |
| 20260905103338 | 77 | 224 | 2.0 | 2.0 | 0.00 | 0.00 | 0.00 | 100 | 1012.2 |
| 20260905102838 | 77 | 262 | 3.0 | 3.0 | 0.00 | 0.00 | 0.00 | 100 | 1011.9 |
| 20260905102338 | 77 | 234 | 2.0 | 3.0 | 0.00 | 0.00 | 0.00 | 100 | 1011.9 |
| 20260905101839 | 77 | 206 | 2.0 | 3.0 | 0.00 | 0.00 | 0.00 | 100 | 1011.9 |
| 20260905101340 | 77 | 257 | 2.0 | 3.0 | 0.00 | 0.00 | 0.00 | 100 | 1011.9 |
| 20260905100838 | 77 | 255 | 2.0 | 2.0 | 0.00 | 0.00 | 0.00 | 100 | 1011.9 |
| 20260905100338 | 77 | 250 | 2.0 | 2.0 | 0.00 | 0.00 | 0.00 | 100 | 1011.9 |
| 20260905095359 | 77 | 254 | 2.0 | 2.0 | 0.00 | 0.00 | 0.00 | 100 | 1011.9 |
| 20260905094839 | 77 | 232 | 2.0 | 2.0 | 0.00 | 0.00 | 0.00 | 100 | 1011.9 |
| 20260905094338 | 76 | 210 | 3.0 | 3.0 | 0.00 | 0.00 | 0.00 | 100 | 1011.9 |
| 20260905093838 | 76 | 227 | 3.0 | 3.0 | 0.00 | 0.00 | 0.00 | 100 | 1011.9 |
| 20260905093339 | 76 | 247 | 2.0 | 3.0 | 0.00 | 0.00 | 0.00 | 100 | 1011.9 |
| 20260905092838 | 76 | 217 | 3.0 | 3.0 | 0.00 | 0.00 | 0.00 | 100 | 1011.9 |
| 20260905092339 | 76 | 233 | 3.0 | 3.0 | 0.00 | 0.00 | 0.00 | 100 | 1011.9 |
| 20260905091839 | 76 | 231 | 3.0 | 3.0 | 0.00 | 0.00 | 0.00 | 99 | 1011.9 |
| 20260905091339 | 76 | 244 | 2.0 | 3.0 | 0.00 | 0.00 | 0.00 | 99 | 1011.9 |
| 20260905090838 | 76 | 204 | 3.0 | 3.0 | 0.00 | 0.00 | 0.00 | 99 | 1011.9 |
| 20260905090340 | 76 | 216 | 3.0 | 5.0 | 0.00 | 0.00 | 0.00 | 99 | 1011.9 |
| 20260905085839 | 76 | 226 | 3.0 | 5.0 | 0.00 | 0.00 | 0.00 | 99 | 1012.2 |
| 20260905085339 | 76 | 230 | 3.0 | 3.0 | 0.00 | 0.00 | 0.00 | 99 | 1012.2 |
| 20260905084838 | 76 | 225 | 3.0 | 3.0 | 0.00 | 0.00 | 0.00 | 98 | 1012.2 |
| 20260905084338 | 76 | 229 | 2.0 | 3.0 | 0.00 | 0.00 | 0.00 | 98 | 1012.2 |
| 20260905083840 | 76 | 253 | 3.0 | 3.0 | 0.00 | 0.00 | 0.00 | 98 | 1012.2 |
| 20260905083338 | 76 | 239 | 2.0 | 2.0 | 0.00 | 0.00 | 0.00 | 98 | 1011.9 |
| 20260905082840 | 76 | 254 | 2.0 | 5.0 | 0.00 | 0.00 | 0.00 | 97 | 1012.2 |
| 20260905082338 | 76 | 230 | 3.0 | 3.0 | 0.00 | 0.00 | 0.00 | 97 | 1012.2 |
| 20260905081838 | 76 | 252 | 6.0 | 7.0 | 0.00 | 0.00 | 0.00 | 97 | 1012.2 |
| 20260905081338 | 76 | 247 | 3.0 | 3.0 | 0.00 | 0.00 | 0.00 | 97 | 1012.2 |
| 20260905080839 | 76 | 211 | 3.0 | 5.0 | 0.00 | 0.00 | 0.00 | 97 | 1012.2 |
| 20260905080339 | 76 | 266 | 2.0 | 2.0 | 0.00 | 0.00 | 0.00 | 97 | 1012.2 |
| 20260905075838 | 76 | 280 | 2.0 | 3.0 | 0.00 | 0.00 | 0.00 | 97 | 1012.5 |
| 20260905075338 | 76 | 255 | 3.0 | 3.0 | 0.00 | 0.00 | 0.00 | 97 | 1012.5 |
| 20260905074838 | 76 | 230 | 3.0 | 3.0 | 0.00 | 0.00 | 0.00 | 97 | 1012.5 |
| 20260905074338 | 76 | 269 | 3.0 | 3.0 | 0.00 | 0.00 | 0.00 | 97 | 1012.5 |
| 20260905073838 | 76 | 245 | 3.0 | 3.0 | 0.00 | 0.00 | 0.00 | 97 | 1012.5 |
| 20260905073338 | 76 | 232 | 2.0 | 3.0 | 0.00 | 0.00 | 0.00 | 97 | 1012.5 |
| 20260905072838 | 76 | 247 | 2.0 | 2.0 | 0.00 | 0.00 | 0.00 | 96 | 1012.5 |
| 20260905072338 | 76 | 253 | 2.0 | 3.0 | 0.00 | 0.00 | 0.00 | 96 | 1012.5 |
| 20260905071838 | 76 | 251 | 2.0 | 2.0 | 0.00 | 0.00 | 0.00 | 96 | 1012.5 |
| 20260905071338 | 76 | 274 | 2.0 | 3.0 | 0.00 | 0.00 | 0.00 | 96 | 1012.5 |
| 20260905070838 | 76 | 263 | 2.0 | 2.0 | 0.00 | 0.00 | 0.00 | 96 | 1012.5 |
| 20260905070339 | 76 | 253 | 2.0 | 2.0 | 0.00 | 0.00 | 0.00 | 96 | 1012.5 |
| 20260905065838 | 76 | 233 | 2.0 | 3.0 | 0.00 | 0.00 | 0.00 | 96 | 1012.5 |
| 20260905065338 | 76 | 230 | 3.0 | 3.0 | 0.00 | 0.00 | 0.00 | 96 | 1012.9 |
| 20260905064838 | 76 | 283 | 2.0 | 3.0 | 0.00 | 0.00 | 0.00 | 95 | 1012.9 |
| 20260905064340 | 76 | 28 | 2.0 | 2.0 | 0.00 | 0.00 | 0.00 | 95 | 1012.9 |
| 20260905063838 | 76 | 280 | 0.0 | 0.0 | 0.00 | 0.00 | 0.00 | 95 | 1012.9 |
| 20260905063338 | 76 | 296 | 0.0 | 0.0 | 0.00 | 0.00 | 0.00 | 94 | 1012.9 |
| 20260905062838 | 76 | 313 | 0.0 | 0.0 | 0.00 | 0.00 | 0.00 | 94 | 1012.9 |
| 20260905062338 | 76 | 35 | 0.0 | 2.0 | 0.00 | 0.00 | 0.00 | 94 | 1012.9 |
| 20260905061839 | 76 | 32 | 0.0 | 0.0 | 0.00 | 0.00 | 0.00 | 94 | 1012.9 |
| 20260905061338 | 76 | 333 | 0.0 | 0.0 | 0.00 | 0.00 | 0.00 | 93 | 1012.9 |
| 20260905060839 | 77 | 323 | 0.0 | 0.0 | 0.00 | 0.00 | 0.00 | 93 | 1012.9 |
| 20260905060338 | 77 | 338 | 0.0 | 0.0 | 0.00 | 0.00 | 0.00 | 93 | 1013.2 |
| 20260905055839 | 77 | 353 | 0.0 | 0.0 | 0.00 | 0.00 | 0.00 | 93 | 1013.2 |
| 20260905055338 | 77 | 348 | 0.0 | 0.0 | 0.00 | 0.00 | 0.00 | 92 | 1013.2 |
| 20260905054838 | 77 | 352 | 0.0 | 0.0 | 0.00 | 0.00 | 0.00 | 92 | 1013.2 |
| 20260905054338 | 77 | 7 | 2.0 | 2.0 | 0.00 | 0.00 | 0.00 | 91 | 1013.2 |
| 20260905053839 | 77 | 312 | 0.0 | 0.0 | 0.00 | 0.00 | 0.00 | 91 | 1013.2 |
| 20260905053338 | 77 | 318 | 0.0 | 0.0 | 0.00 | 0.00 | 0.00 | 90 | 1013.2 |
| 20260905052838 | 78 | 280 | 0.0 | 0.0 | 0.00 | 0.00 | 0.00 | 90 | 1013.2 |
| 20260905052339 | 78 | 259 | 0.0 | 2.0 | 0.00 | 0.00 | 0.00 | 90 | 1013.5 |
| 20260905051838 | 78 | 265 | 2.0 | 3.0 | 0.00 | 0.00 | 0.00 | 90 | 1013.5 |
| 20260905051339 | 78 | 250 | 0.0 | 3.0 | 0.00 | 0.00 | 0.00 | 89 | 1013.5 |
| 20260905050838 | 78 | 236 | 3.0 | 3.0 | 0.00 | 0.00 | 0.00 | 89 | 1013.5 |
| 20260905050339 | 78 | 267 | 2.0 | 2.0 | 0.00 | 0.00 | 0.00 | 89 | 1013.2 |
| 20260905045840 | 78 | 266 | 2.0 | 2.0 | 0.00 | 0.00 | 0.00 | 89 | 1013.5 |
| 20260905045338 | 78 | 259 | 3.0 | 3.0 | 0.00 | 0.00 | 0.00 | 88 | 1013.5 |
| 20260905044838 | 78 | 226 | 2.0 | 2.0 | 0.00 | 0.00 | 0.00 | 89 | 1013.5 |
| 20260905044338 | 78 | 255 | 2.0 | 3.0 | 0.00 | 0.00 | 0.00 | 88 | 1013.5 |
| 20260905043839 | 78 | 280 | 0.0 | 0.0 | 0.00 | 0.00 | 0.00 | 88 | 1012.9 |
| 20260905043340 | 78 | 203 | 2.0 | 3.0 | 0.00 | 0.00 | 0.00 | 88 | 1013.2 |
| 20260905042838 | 78 | 222 | 2.0 | 2.0 | 0.00 | 0.00 | 0.00 | 88 | 1013.9 |
| 20260905042338 | 78 | 236 | 3.0 | 5.0 | 0.00 | 0.00 | 0.00 | 88 | 1013.9 |
| 20260905041839 | 78 | 213 | 2.0 | 2.0 | 0.00 | 0.00 | 0.00 | 88 | 1013.5 |
| 20260905041338 | 78 | 237 | 0.0 | 0.0 | 0.00 | 0.00 | 0.00 | 88 | 1013.9 |
| 20260905040838 | 78 | 235 | 2.0 | 2.0 | 0.00 | 0.00 | 0.00 | 88 | 1014.2 |
| 20260905040340 | 78 | 282 | 2.0 | 3.0 | 0.00 | 0.00 | 0.00 | 87 | 1014.9 |
| 20260905035839 | 78 | 260 | 2.0 | 2.0 | 0.00 | 0.00 | 0.00 | 87 | 1015.2 |
| 20260905035338 | 78 | 225 | 3.0 | 3.0 | 0.00 | 0.00 | 0.00 | 87 | 1015.2 |
| 20260905034838 | 78 | 217 | 2.0 | 2.0 | 0.00 | 0.00 | 0.00 | 87 | 1015.6 |
| 20260905034338 | 78 | 249 | 2.0 | 2.0 | 0.00 | 0.00 | 0.00 | 87 | 1015.6 |
| 20260905033838 | 78 | 299 | 2.0 | 2.0 | 0.00 | 0.00 | 0.00 | 87 | 1015.6 |
| 20260905033338 | 78 | 274 | 0.0 | 2.0 | 0.00 | 0.00 | 0.00 | 86 | 1015.9 |
| 20260905032839 | 79 | 143 | 2.0 | 2.0 | 0.00 | 0.00 | 0.00 | 86 | 1015.9 |
| 20260905032339 | 79 | 350 | 0.0 | 3.0 | 0.00 | 0.00 | 0.00 | 85 | 1016.3 |
| 20260905031838 | 79 | 136 | 5.0 | 5.0 | 0.00 | 0.00 | 0.00 | 86 | 1016.3 |
| 20260905031338 | 79 | 103 | 2.0 | 2.0 | 0.00 | 0.00 | 0.00 | 86 | 1016.3 |
| 20260905030839 | 79 | 96 | 3.0 | 5.0 | 0.00 | 0.00 | 0.00 | 86 | 1016.6 |
| 20260905030338 | 79 | 55 | 6.0 | 14.0 | 0.00 | 0.00 | 0.00 | 86 | 1016.6 |
| 20260905025839 | 80 | 24 | 5.0 | 10.0 | 0.00 | 0.00 | 0.00 | 86 | 1016.9 |
| 20260905025339 | 80 | 71 | 11.0 | 17.0 | 0.00 | 0.00 | 0.00 | 86 | 1016.9 |
| 20260905024839 | 80 | 76 | 8.0 | 10.0 | 0.00 | 0.00 | 0.00 | 88 | 1016.9 |
| 20260905024339 | 81 | 14 | 11.0 | 14.0 | 0.00 | 0.00 | 0.00 | 93 | 1016.6 |
| 20260905023839 | 81 | 50 | 13.0 | 14.0 | 0.00 | 0.00 | 0.00 | 96 | 1016.3 |
| 20260905023338 | 81 | 288 | 0.0 | 0.0 | 0.00 | 0.00 | 0.00 | 95 | 1015.6 |
| 20260905022838 | 81 | 283 | 0.0 | 2.0 | 0.00 | 0.00 | 0.00 | 95 | 1015.6 |
| 20260905022338 | 81 | 318 | 0.0 | 0.0 | 0.00 | 0.00 | 0.00 | 95 | 1015.6 |
| 20260905021838 | 81 | 307 | 0.0 | 2.0 | 0.00 | 0.00 | 0.00 | 95 | 1015.6 |
| 20260905021338 | 81 | 264 | 3.0 | 3.0 | 0.00 | 0.00 | 0.00 | 95 | 1015.6 |
| 20260905020838 | 81 | 330 | 0.0 | 0.0 | 0.00 | 0.00 | 0.00 | 95 | 1015.9 |
| 20260905020338 | 81 | 327 | 0.0 | 0.0 | 0.00 | 0.00 | 0.00 | 95 | 1015.9 |
| 20260905015838 | 81 | 307 | 0.0 | 0.0 | 0.00 | 0.00 | 0.00 | 94 | 1015.9 |
| 20260905015338 | 81 | 347 | 0.0 | 0.0 | 0.00 | 0.00 | 0.00 | 94 | 1015.6 |
| 20260905014838 | 81 | 349 | 0.0 | 0.0 | 0.00 | 0.00 | 0.00 | 94 | 1015.6 |
| 20260905014340 | 81 | 329 | 0.0 | 0.0 | 0.00 | 0.00 | 0.00 | 94 | 1015.6 |
| 20260905013838 | 81 | 238 | 2.0 | 3.0 | 0.00 | 0.00 | 0.00 | 94 | 1015.2 |
| 20260905013338 | 82 | 283 | 0.0 | 0.0 | 0.00 | 0.00 | 0.00 | 93 | 1015.2 |
| 20260905012839 | 82 | 306 | 0.0 | 0.0 | 0.00 | 0.00 | 0.00 | 93 | 1015.2 |
| 20260905012339 | 82 | 195 | 2.0 | 2.0 | 0.00 | 0.00 | 0.00 | 93 | 1015.2 |
| 20260905011838 | 82 | 253 | 3.0 | 3.0 | 0.00 | 0.00 | 0.00 | 93 | 1014.9 |
| 20260905011338 | 82 | 315 | 0.0 | 0.0 | 0.00 | 0.00 | 0.00 | 92 | 1014.6 |
| 20260905010838 | 82 | 229 | 0.0 | 0.0 | 0.00 | 0.00 | 0.00 | 92 | 1014.6 |
| 20260905010338 | 82 | 233 | 2.0 | 3.0 | 0.00 | 0.00 | 0.00 | 92 | 1014.6 |
| 20260905005838 | 82 | 228 | 3.0 | 3.0 | 0.00 | 0.00 | 0.00 | 91 | 1014.6 |
| 20260905005338 | 83 | 252 | 0.0 | 2.0 | 0.00 | 0.00 | 0.00 | 91 | 1014.6 |
| 20260905004838 | 83 | 66 | 2.0 | 3.0 | 0.00 | 0.00 | 0.00 | 91 | 1014.2 |
| 20260905004338 | 83 | 238 | 3.0 | 3.0 | 0.00 | 0.00 | 0.00 | 90 | 1014.2 |
| 20260905003838 | 83 | 267 | 2.0 | 3.0 | 0.00 | 0.00 | 0.00 | 90 | 1014.2 |
| 20260905003338 | 83 | 260 | 2.0 | 2.0 | 0.00 | 0.00 | 0.00 | 90 | 1014.2 |
| 20260905002838 | 83 | 224 | 2.0 | 3.0 | 0.00 | 0.00 | 0.00 | 89 | 1013.9 |
| 20260905002338 | 83 | 217 | 5.0 | 7.0 | 0.00 | 0.00 | 0.00 | 89 | 1014.2 |
| 20260905001838 | 83 | 225 | 2.0 | 2.0 | 0.00 | 0.00 | 0.00 | 89 | 1013.9 |
| 20260905001340 | 83 | 182 | 2.0 | 3.0 | 0.00 | 0.00 | 0.00 | 88 | 1013.9 |
| 20260905000840 | 84 | 271 | 2.0 | 3.0 | 0.00 | 0.00 | 0.00 | 88 | 1013.9 |
| 20260905000340 | 84 | 277 | 0.0 | 0.0 | 0.00 | 0.00 | 0.00 | 87 | 1013.9 |
| 20260904235838 | 84 | 222 | 2.0 | 2.0 | 0.00 | 0.00 | 0.00 | 87 | 1013.9 |